This is the latest recevied weather packets stored in our database for station/object DB0SWS-13. If no packets are shown the sender has not sent any weather packets the latest 10 day(s).
| Time | Temp. | Humidity | Pressure | Rain* | Wind** | Luminosity | Snow |
|---|---|---|---|---|---|---|---|
| 1787462506 | 12.22° C | 69% | 1026.6 hPa | - | - | - | - |
| 1787461608 | 12.22° C | 69% | 1026.4 hPa | - | - | - | - |
| 1787460708 | 12.22° C | 69% | 1026.3 hPa | - | - | - | - |
| 1787459808 | 12.22° C | 68% | 1026.2 hPa | - | - | - | - |
| 1787458908 | 12.78° C | 66% | 1026.1 hPa | - | - | - | - |
| 1787458008 | 12.78° C | 66% | 1025.9 hPa | - | - | - | - |
| 1787457108 | 12.78° C | 67% | 1025.9 hPa | - | - | - | - |
| 1787456208 | 12.78° C | 67% | 1025.8 hPa | - | - | - | - |
| 1787455308 | 12.78° C | 69% | 1025.9 hPa | - | - | - | - |
| 1787454408 | 12.22° C | 72% | 1025.8 hPa | - | - | - | - |
| 1787453508 | 12.22° C | 72% | 1025.9 hPa | - | - | - | - |
| 1787452607 | 12.22° C | 73% | 1026 hPa | - | - | - | - |
| 1787451707 | 12.22° C | 73% | 1025.9 hPa | - | - | - | - |
| 1787450807 | 12.22° C | 72% | 1025.8 hPa | - | - | - | - |
| 1787449907 | 12.22° C | 72% | 1025.8 hPa | - | - | - | - |
| 1787449007 | 12.22° C | 73% | 1025.9 hPa | - | - | - | - |
| 1787448107 | 12.22° C | 72% | 1025.9 hPa | - | - | - | - |
| 1787447207 | 12.78° C | 71% | 1025.9 hPa | - | - | - | - |
| 1787446306 | 12.78° C | 71% | 1025.9 hPa | - | - | - | - |
| 1787445406 | 12.78° C | 70% | 1025.8 hPa | - | - | - | - |
| 1787444506 | 12.78° C | 70% | 1025.9 hPa | - | - | - | - |
| 1787443605 | 12.78° C | 70% | 1025.8 hPa | - | - | - | - |
| 1787442705 | 12.78° C | 70% | 1025.9 hPa | - | - | - | - |
| 1787441805 | 12.78° C | 69% | 1026 hPa | - | - | - | - |
| 1787440905 | 13.33° C | 69% | 1026.2 hPa | - | - | - | - |
* Rain since midnight (hover to see other rain measurements)
** Current wind speed in m/s (hover to see current wind gust speed)